Regional Weather Roundup
Issued by NWS Sioux Falls, SD

Home | Current Version | Previous Version | Graphics & Text | Print | Product List | Glossary Off
Versions: 1 2 3 4 5 6 7 8 9 10 11 12 13 14 15 16 17 18 19 20 21 22 23 24 25 26 27 28 29 30 31 32 33 34 35 36 37 38 39 40 41 42 43 44 45 46 47 48 49 50

000
ASUS43 KFSD 191002
RWRFSD

WEATHER ROUNDUP FOR SE SOUTH DAKOTA/SW MINNESOTA/NW IOWA
NATIONAL WEATHER SERVICE SIOUX FALLS SD
500 AM CDT SAT APR 19 2014

NOTE: "FAIR" INDICATES FEW OR NO CLOUDS BELOW 12,000 FEET WITH NO
SIGNIFICANT WEATHER AND OR OBSTRUCTIONS TO VISIBILITY.


SDZ038>040-050-052>070-191100-
SOUTHEAST SOUTH DAKOTA

CITY           SKY/WX    TMP DP  RH WIND       PRES   REMARKS
CHAMBERLAIN      N/A     55  41  59 NW17G29   29.86R
HURON          PTCLDY    58  42  55 S14G25    29.78R
MADISON        FAIR      54  41  62 S23       29.88R
MITCHELL       MOCLDY    59  43  55 S14       29.85R
SIOUX FALLS    CLOUDY    55  40  56 S21G29    29.93S
WINNER         FAIR      56  40  55 NW18G26   29.89R
YANKTON        MOCLDY    57  41  54 S13G22    29.93R
$$

MNZ071-072-080-081-089-090-097-098-191100-
SOUTHWEST MINNESOTA

CITY           SKY/WX    TMP DP  RH WIND       PRES   REMARKS
FAIRMONT       PTCLDY    46  28  49 SE18      30.11R
JACKSON        MOCLDY    50  36  57 S12G23    30.06R
LUVERNE        MOCLDY    52  37  58 S13       29.98S
MARSHALL       CLOUDY    52  37  58 S23G30    29.88F
MONTEVIDEO     CLOUDY    48  37  66 S20G30    29.91S
PIPESTONE      MOCLDY    52  39  62 S24       29.92F
REDWOOD FALLS  CLOUDY    47  34  60 SE29G38   29.96F
TRACY          CLOUDY    50  39  65 S21G32    29.94F
WINDOM         MOCLDY    48  37  66 SE13      30.04S
WORTHINGTON    MOCLDY    48  34  57 S13       30.04R
$$

IAZ001>003-012>014-020>022-031-032-NEZ013-014-SDZ071-191100-
NORTHWEST IOWA

CITY           SKY/WX    TMP DP  RH WIND       PRES   REMARKS
DENISON        CLOUDY    52  41  66 S18G24    30.04S
ESTHERVILLE    MOCLDY    45  37  73 SE16      30.06R
SIOUX CITY     PTCLDY    54  41  61 S14       29.99S
SPENCER        PTCLDY    49  39  68 S21G29    30.03R
STORM LAKE     PTCLDY    48  41  76 S20       30.04F
$$

ABBREVIATIONS USED IN REMARKS
   TC - TEMPERATURE IN CELSIUS
  WCI - WIND CHILL INDEX
   HX - HEAT INDEX
  VSB - VISIBILITY




USA.gov is the U.S. government's official web portal to all federal, state and local government web resources and services.